Miscellaneous Local Product
Issued by NWS Hastings, NE

Home | Current Version | Previous Version | Text Only | Print | Product List | Glossary On
Versions: 1 2 3 4 5 6 7 8 9 10 11 12 13 14 15 16 17 18 19 20 21 22 23 24 25 26 27 28 29 30 31 32 33 34 35 36 37 38 39 40 41 42 43 44 45 46 47 48 49 50
000
AXUS43 KGID 181302
MISGRI

GID CWA HOURLY WEATHER ROUNDUP
NATIONAL WEATHER SERVICE HASTINGS NE
700 AM CST THU DEC 18 2014

NOTE: "FAIR" INDICATES FEW OR NO CLOUDS BELOW 12,000 FEET WITH NO
SIGNIFICANT WEATHER AND/OR OBSTRUCTIONS TO VISIBILITY.

...SOUTH CENTRAL NEBRASKA...

CITY           SKY/WX    TMP DP  RH WIND       PRES   REMARKS
GRAND ISLAND   CLOUDY    23  21  92 SE3       30.17S
HASTINGS       CLOUDY    24  21  88 SE7       30.15R WCI  16
KEARNEY        CLOUDY    25  21  86 E7        30.13S WCI  17
ORD            CLOUDY    23  20  88 SE6       30.13R WCI  16
YORK           CLOUDY    25 N/A N/A E6        30.18S WCI  18
AURORA         CLOUDY    24  23  94 SE3       30.17R
LEXINGTON      CLOUDY    25  23  93 S3        30.11S
HOLDREGE       CLOUDY    24  22  93 SE5       30.12S WCI  18
HEBRON         LGT SNOW  26  24  92 CALM      30.19R

...NEBRASKA PANHANDLE...

CITY           SKY/WX    TMP DP  RH WIND       PRES   REMARKS
CHADRON        PTCLDY     3  -1  83 SW7       30.03R WCI  -9
ALLIANCE       PTCLDY    -1  -6  79 W7        30.00S WCI -14
SCOTTSBLUFF    FOG        8   5  87 NW7       30.03R VSB 1/2 WCI  -3
SIDNEY         PTCLDY     5   1  83 CALM      30.00R

...WESTERN AND NORTH CENTRAL NEBRASKA...

CITY           SKY/WX    TMP DP  RH WIND       PRES   REMARKS
VALENTINE      CLOUDY    25  21  85 CALM      30.06R
AINSWORTH      CLOUDY    23  23  97 SW3       30.07S
ONEILL         CLOUDY    22  21  95 CALM      30.14S
BROKEN BOW     CLOUDY    24  23  96 S5        30.10S FOG     WCI  18
IMPERIAL       CLOUDY    25  23  92 W5        30.06R WCI  19
NORTH PLATTE   CLOUDY    24  22  91 SW7       30.09R WCI  16
MCCOOK         CLOUDY    23  21  92 CALM      30.11R

...EASTERN NEBRASKA...

CITY           SKY/WX    TMP DP  RH WIND       PRES   REMARKS
NORFOLK        CLOUDY    25  22  88 CALM      30.19R
SO SIOUX CITY  CLOUDY    26  21  81 E6        30.24R WCI  19
TEKAMAH        CLOUDY    26  21  81 E3        30.24R
COLUMBUS       CLOUDY    25  18  74 CALM      30.21R
ALBION         CLOUDY    23  20  88 SE6       30.17S WCI  16
OMAHA EPPLEY   FLURRIES  27  22  81 SE5       30.25R WCI  22
OFFUTT AFB     LGT SNOW  27  23  86 E7        30.23R FOG     WCI  19
MILLARD        FLURRIES  28  22  76 SE6       30.23R WCI  22
LINCOLN        LGT SNOW  26  24  92 CALM      30.22S FOG
NEBRASKA CITY  LGT SNOW  27  27 100 E5        30.22R WCI  21
BEATRICE       LGT SNOW  26  25  95 E3        30.20R
FALLS CITY     LGT SNOW  27  25  92 NE5       30.22S FOG     WCI  22

...NORTHERN KANSAS...

CITY           SKY/WX    TMP DP  RH WIND       PRES   REMARKS
GOODLAND       MOCLDY     8   5  87 W7        30.06R FOG     WCI  -3
HILL CITY      CLOUDY    26  24  92 E3        30.14R
NORTON         CLOUDY    25  21  86 CALM      30.12R
PHILLIPSBURG   CLOUDY    28  28 100 CALM      30.16S
SMITH CENTER   CLOUDY    23  21  93 E3        30.18R
BELOIT         CLOUDY    27  25  93 CALM      30.18R
HAYS           CLOUDY    27  18  69 NE6       30.14R WCI  20
RUSSELL        CLOUDY    25  25 100 NE6       30.14R FOG     WCI  18
CONCORDIA      LGT SNOW  25  24  96 NE5       30.18R FOG     WCI  19
SALINA         LGT SNOW  28  26  92 NE5       30.19R FOG     WCI  23
TOPEKA         LGT SNOW  30  27  88 E5        30.21S FOG     WCI  25



USA.gov is the U.S. government's official web portal to all federal, state and local government web resources and services.